Terminal Aerodrome Forecast
Issued by NWS Greer, SC

Home | Current Version | Previous Version | Text Only | Print | Product List | Glossary On
Versions: 1 2 3 4 5 6 7 8 9 10 11 12 13 14 15 16 17 18 19 20 21 22 23 24 25 26 27 28 29 30 31 32 33 34 35 36 37 38 39 40 41 42 43 44 45 46 47 48 49 50
000
FTUS42 KGSP 031440 CCA
TAFCLT
TAF COR
KCLT 031440Z 0315/0412 07007KT 2SM BR SCT008 OVC013
      TEMPO 0315/0317 5SM -RA BR BKN008 OVC015
     FM031700 08005KT 4SM -RA OVC008
     FM032100 00000KT 3SM BR OVC008
     FM040300 00000KT 5SM BR OVC003
     FM040900 20006KT P6SM OVC003 WS020/23040KT=

USA.gov is the U.S. government's official web portal to all federal, state and local government web resources and services.